VERC

Details ICAO VERC (IXR)
Name BIRSA MUNDA
Region India
Timezone Asia/Kolkata (UTC+5.5)
Plans Departing 15
Arriving 15
Stats Elevation 2,148 ft / 655 m (AMSL)
Location 23.314668° 85.321675°
Runways 1
Magnetic Variation 0.008° W
Sunrise 2018-05-20 23:36:27 UTC / 2018-05-21 05:06:27 Local
Sunset 2018-05-21 12:56:58 UTC / 2018-05-21 18:26:58 Local
Advertisement - Login to hide

Runways

ID Width Length Bearing (true) Bearing (mag) Surface Threshold Offset Overrun Length
13 148 ft / 45 m 8,863 ft / 2,701 m 130.35° 130.36° Asphalt 948 ft / 289 m 0 ft / 0 m
31 148 ft / 45 m 8,863 ft / 2,701 m 310.35° 310.36° Asphalt 0 ft / 0 m 0 ft / 0 m

Approach Navaids

Runway Type Ident Frequency Range Bearing (true) Bearing (mag) Slope Elevation
31 Localiser RAN 110.50 MHz 18 nm / 33 km 310.65° 310.65° - 2,148 ft / 655 m (AMSL)
31 Glidescope RAN 110.50 MHz 10 nm / 19 km 310.35° 310.36° 3.00° 2,148 ft / 655 m (AMSL)
31 DME RAN 110.50 MHz 18 nm / 33 km - - - 2,148 ft / 655 m (AMSL)

Map

Weather


0- 5 10 15 20 25 30 35+ Temperature / ° C

Clouds and Precipitation
Forecast for 2018-05-20 18:00 UTC. Updated an hour ago

Ground ~20,000 ft ~40,000 ft Winds

METAR

VERC 201800Z 23008KT 3000 HZ SCT018 BKN100 23/20 Q1009 NOSIG

TAF

Not found

Frequencies

Tower 122.30 MHz RANCHI TWR
Warning: Do not use this data for real-world aviation or navigation. No guarantee of current accuracy is given.